Location: Favalello
(42.2939°N, 9.2706°E)
Time: 03:36:23
(UTC+00:00)

Lacrosse 5 rocket - Pass Details

Date: 06 December 2019
Orbit: 465 x 632 km, 57.0° (Epoch: 26 January)

Event Time Altitude Azimuth Distance (km) Brightness Sun altitude
Rises 17:18:55 0° 227° (SW) 2,820 6.1 -15.8°
Reaches altitude 10° 17:21:14 10° 229° (SW) 1,896 5.1 -16.2°
Maximum altitude 17:25:32 80° 316° (NW) 574 1.4 -17.0°
Enters shadow 17:27:26 31° 40° (NE) 974 2.1 -17.3°
